Location: Red Bud (historical)
(37.7759°N, 88.4053°W)
Time: 04:44:35
(UTC+00:00)

Tiangong - Pass Details

Date: 20 June 2021
Orbit: 373 x 385 km, 41.5° (Epoch: 04 August)

Event Time Altitude Azimuth Distance (km) Brightness Sun altitude
Exits shadow 08:54:38 39° 193° (SSW) 587 1.5 -15.7°
Maximum altitude 08:55:17 46° 154° (SSE) 517 1.5 -15.6°
Drops below altitude 10° 08:58:20 10° 79° (E) 1,398 4.7 -15.2°
Sets 09:00:28 0° 73° (ENE) 2,257 6.1 -14.9°
